Tianhe

operational
NORAD ID: 48274 Int'l Des: 2021-035 Owner: CMSEO Country: CN
LEOCIRCULAR

关于 Tianhe

正在加载描述...

实时位置

正在加载3D地球...

即将过境

高度历史

Altitude vs Time

uPlot chart will show altitude changes over time

两行轨道根数

1 48274U 21035A 25306.17586037 .00031797 00000-0 38131-3 0 9995
2 48274 41.4666 263.0710 0006682 308.7013 51.3228 15.60215133257694
Epoch: Nov 2, 2025 • Age: 41 hours

当前状态

高度 389.7 km
速度 7.68 km/s
星下点 4.89°N, 70.4°E
发射日期 Apr 29, 2021
运行时间 4.5 years
类型 other

技术详情

分类 Payload
质量 21500.00 kg
干质量 20838.00 kg
总质量 22500.00 kg
长度 16.60 m
直径 4.20 m
跨度 30.00 m
形状 Step Cyl + 2 Pan
制造商 CAST
平台类型 Tianhe
阶段状态 In Orbit
所有者/国家 CMSEO/CN

大型星座

Loading constellations...